Location: Unspecified
(50.7693°N, 0.0000°E)
Time: 03:45:48
(UTC+00:00)

deb Explorer IX - Pass Details

Date: 02 October 2020
Orbit: 537 x 1106 km, 38.8° (Epoch: 19 October)

Event Time Altitude Azimuth Distance (km) Brightness Sun altitude
Rises 18:50:15 0° 250° (WSW) 3,018 ? -12.7°
Reaches altitude 10° 18:53:30 10° 229° (SW) 1,998 ? -13.2°
Maximum altitude 18:56:18 16° 191° (SSW) 1,561 ? -13.7°
Enters shadow 18:58:56 10° 153° (SSE) 1,859 ? -14.1°
